Sacramento, CA

10:53 PM PDT on April 21, 2018 (GMT -0700)
Sacramento Executive

Weather History for KSAC - October, 2013

Change the Weather History Date:

Thursday, October 10, 2013

  Actual Average Record
Temperature  
Mean Temperature 63 °F -  
Max Temperature 74 °F 80 °F 100 °F (1991)
Min Temperature 51 °F 52 °F 42 °F (1985)
Degree Days  
Heating Degree Days 2    
Cooling Degree Days 0    
Growing Degree Days 13 (Base 50)    
Moisture  
Dew Point 42 °F    
Average Humidity 49    
Maximum Humidity 71    
Minimum Humidity 27    
Precipitation  
Precipitation 0.00 in 0.02 in 0.73 in (1984)
Month to date precipitation 0.00 0.17  
Year to date precipitation 4.50 12.41  
Since 1 July precipitation 0.59  
Sea Level Pressure  
Sea Level Pressure 29.88 in    
Wind  
Wind Speed 4 mph (SSE)    
Max Wind Speed 13 mph    
Max Gust Speed 17 mph    
Visibility 10 miles    
Events      
T = Trace of Precipitation, MM = Missing Value Source: NWS Daily Summary

Daily Weather History Graph

Daily Weather History Graph

Search for Another Location

Airport or City:

Astronomy

Oct. 10, 2013 Rise Set
Actual Time 7:10 AM PDT 6:34 PM PDT
Civil Twilight 6:43 AM PDT 7:01 PM PDT
Nautical Twilight 6:13 AM PDT 7:31 PM PDT
Astronomical Twilight 5:42 AM PDT 8:02 PM PDT
Moon 1:04 PM PDT (10/10) 11:20 PM PDT (10/10)
Length of Visible Light 12h 17m
Length of Day
11h 24m
Waxing Crescent, 37% of the Moon is Illuminated
Oct 10
Waxing Crescent
Oct 11
First Quarter
Oct 18
Full
Oct 26
Last Quarter
Nov 3
New

Hourly Weather History & Observations

Time (PDT) Temp. Dew Point Humidity Pressure Visibility Wind Dir Wind Speed Gust Speed Precip Events Conditions
12:53 AM 57.9 °F 37.9 °F 47% 29.75 in 10.0 mi NNW 5.8 mph - N/A   Clear
1:53 AM 55.0 °F 39.9 °F 57% 29.76 in 10.0 mi Calm Calm - N/A   Clear
2:53 AM 53.1 °F 42.1 °F 66% 29.79 in 10.0 mi ENE 3.5 mph - N/A   Clear
3:53 AM 53.1 °F 44.1 °F 71% 29.80 in 10.0 mi SE 3.5 mph - N/A   Clear
4:53 AM 54.0 °F 44.1 °F 69% 29.80 in 10.0 mi SSE 4.6 mph - N/A   Clear
5:53 AM 53.1 °F 44.1 °F 71% 29.82 in 10.0 mi SSE 3.5 mph - N/A   Clear
6:53 AM 54.0 °F 43.0 °F 66% 29.84 in 10.0 mi SE 5.8 mph - N/A   Clear
7:53 AM 54.0 °F 44.1 °F 69% 29.86 in 10.0 mi SSE 6.9 mph - N/A   Clear
8:53 AM 55.9 °F 44.1 °F 64% 29.90 in 10.0 mi SSE 6.9 mph - N/A   Clear
9:53 AM 60.1 °F 44.1 °F 55% 29.91 in 10.0 mi SSE 8.1 mph 17.3 mph N/A   Clear
10:53 AM 64.0 °F 43.0 °F 46% 29.92 in 10.0 mi SE 8.1 mph - N/A   Clear
11:53 AM 66.0 °F 42.1 °F 42% 29.93 in 10.0 mi South 8.1 mph - N/A   Clear
12:53 PM 69.1 °F 41.0 °F 36% 29.92 in 10.0 mi South 6.9 mph - N/A   Clear
1:53 PM 71.1 °F 39.9 °F 32% 29.91 in 10.0 mi Calm Calm - N/A   Clear
2:53 PM 71.1 °F 39.0 °F 31% 29.91 in 10.0 mi SW 6.9 mph - N/A   Clear
3:53 PM 73.0 °F 39.0 °F 29% 29.91 in 10.0 mi SSW 4.6 mph - N/A   Clear
4:53 PM 73.0 °F 37.0 °F 27% 29.90 in 10.0 mi South 4.6 mph - N/A   Clear
5:53 PM 72.0 °F 37.9 °F 29% 29.90 in 10.0 mi SSE 3.5 mph - N/A   Clear
6:53 PM 64.9 °F 42.1 °F 43% 29.91 in 10.0 mi South 3.5 mph - N/A   Clear
7:53 PM 63.0 °F 42.1 °F 46% 29.93 in 10.0 mi SSW 3.5 mph - N/A   Clear
8:53 PM 57.9 °F 44.1 °F 60% 29.94 in 10.0 mi Calm Calm - N/A   Clear
9:53 PM 57.9 °F 45.0 °F 62% 29.96 in 10.0 mi South 3.5 mph - N/A   Clear
10:53 PM 55.0 °F 45.0 °F 69% 29.98 in 10.0 mi SSW 3.5 mph - N/A   Clear
11:53 PM 54.0 °F 46.0 °F 75% 29.98 in 10.0 mi Calm Calm - N/A   Clear